Regional Weather Roundup
Issued by NWS Sterling, VA

Home | Current Version | Previous Version | Graphics & Text | Print | Product List | Glossary On
Versions: 1 2 3 4 5 6 7 8 9 10 11 12 13 14 15 16 17 18 19 20 21 22 23 24 25 26 27 28 29 30 31 32 33 34 35 36 37 38 39 40 41 42 43 44 45 46 47 48 49 50
000
ASUS41 KLWX 221210
RWRLWX

REGIONAL WEATHER ROUNDUP
NATIONAL WEATHER SERVICE BALTIMORE MD/WASHINGTON DC
800 AM EDT FRI AUG 22 2014

Note: "FAIR" indicates few or no clouds below 12,000 feet
with no significant weather and/or obstructions to visibility.
 TC=TEMPERATURE CELSIUS

 * =Non NWS site. Station does not report precipitation (e.g. rain,
    snow, etc.), thunder, or fog.

DCZ001-MDZ009-015-VAZ040>042-051-053>054-221300-
WASHINGTON METRO
  /KDAA//-FT BELVOIR

CITY           SKY/WX    TMP DP  RH WIND       PRES   REMARKS
WASHINGTON NAT CLOUDY    76  66  71 N8        30.01R
DULLES         PTSUNNY   71  66  84 N3        30.01R
ANDREWS AFB    PTSUNNY   73  67  82 NW6       30.01R
QUANTICO       MOSUNNY   75  66  73 N5        30.01R
COLLEGE PARK*  CLOUDY    72  68  88 CALM      30.00R
LEESBURG*      CLOUDY    72  70  94 CALM      30.02S
MANASSAS*      MOSUNNY   72  72 100 CALM      30.01R
GAITHERSBURG*  PTSUNNY   68  66  94 CALM      30.06R

$$

MDZ006>007-011-014-221300-
BALTIMORE METRO

CITY           SKY/WX    TMP DP  RH WIND       PRES   REMARKS
BWI AIRPORT    MOSUNNY   72  67  84 W5        29.99R
MD SCIENCE CTR   N/A     74  68  81 MISG      29.99R
MARTIN STATE   CLOUDY    72  72 100 CALM      30.00R FOG
ANNAPOLIS      MOSUNNY   74  69  85 NW7       29.98R
FORT MEADE*    PTSUNNY   70  68  94 N3        30.02R

$$

MDZ012-015-019>023-221300-
MARYLAND EASTERN SHORE

CITY           SKY/WX    TMP DP  RH WIND       PRES   REMARKS
OCEAN CITY     MOSUNNY  N/A N/A N/A CALM      29.97R
SALISBURY      MOSUNNY   75  70  84 CALM      29.97R
BAY BRIDGE AP*   N/A     73  72  94 E7        29.98R
CAMBRIDGE*     SUNNY     77  72  83 N6        29.97R
EASTON*        CLOUDY    73  73 100 CALM      30.01R FOG

$$

MDZ017>025-221300-
SOUTHERN MARYLAND

CITY           SKY/WX    TMP DP  RH WIND       PRES   REMARKS
PATUXENT RIVER PTSUNNY   75  67  76 NW12      29.98R
ST INIGOES     MOSUNNY   76  66  71 VRB5      29.97R
LEONARDTOWN*   MOSUNNY   73  64  73 N3        29.99S

$$

MDZ003>005-221300-
NORTH CENTRAL MARYLAND

CITY           SKY/WX    TMP DP  RH WIND       PRES   REMARKS
FREDERICK*     CLOUDY   N/A N/A N/A CALM      30.05R
HAGERSTOWN APT CLOUDY    68  65  90 CALM      30.03R
WESTMINSTER*   MOSUNNY   70  66  88 CALM      30.03R FOG

$$

MDZ501>502-221300-
WESTERN MARYLAND

CITY           SKY/WX    TMP DP  RH WIND       PRES   REMARKS
OAKLAND*       CLOUDY    63 N/A N/A CALM      30.09S FOG
CUMBERLAND*    PTSUNNY   70  66  88 CALM      30.05F

$$

VAZ025>031-221300-
SHENANDOAH VALLEY

CITY           SKY/WX    TMP DP  RH WIND       PRES   REMARKS
WINCHESTER*    PTSUNNY   70  68  94 CALM      30.02S
STAUNTON*      RAIN      67  65  93 CALM      30.07S

$$

WVZ021-048>050-054>055-221300-
EASTERN WEST VIRGINIA PANHANDLE

CITY           SKY/WX    TMP DP  RH WIND       PRES   REMARKS
MARTINSBURG    CLOUDY    71  65  81 CALM      30.02F
PETERSBURG*    NOT AVBL

$$

VAZ036>039-050-221300-
CENTRAL FOOTHILLS

CITY           SKY/WX    TMP DP  RH WIND       PRES   REMARKS
CHARLOTTESVILL CLOUDY    71  68  90 SW3       30.02R
ORANGE*        PTSUNNY   72  70  94 CALM      30.02R

$$

VAZ055>057-221300-
NORTH AND CENTRAL PIEDMONT

CITY           SKY/WX    TMP DP  RH WIND       PRES   REMARKS
FREDERICKSBRG* MOSUNNY   74  71  89 CALM      30.00R
STAFFORD*      MOSUNNY   70  70 100 CALM      30.05R FOG

$$

NCZ024-NYZ072-PAZ021-071-VAZ022-071-221300-
OTHER REGIONAL OBSERVATIONS

CITY           SKY/WX    TMP DP  RH WIND       PRES   REMARKS
NEW YORK CITY  PTSUNNY   68  64  87 VRB6      30.05R
PHILADELPHIA   CLOUDY    69  65  86 E8        30.01R
PITTSBURGH     CLOUDY    69  67  93 CALM      30.01S FOG
ROANOKE        LGT RAIN  70  66  87 NE8       30.09R
RICHMOND       PTSUNNY   76  69  79 VRB3      30.00R
RALEIGH        PTSUNNY   76  71  85 CALM      30.03R

$$

ANZ530>537-221300-
MARINE OBSERVATIONS

STATION/POSITION TIME  TEMP    WIND        PRES
                       AIR SEA DIR/SP/G
                 (UTC) (F)     (DEG/KT/KT) (MB)
THOMAS PT LIGHT  1200   73 79  340/  9/ 11 1015.7R
BALT KEY BRIDGE  1200   72     360/  6/  7 1015.0S
COVE POINT       1200   74     340/ 12/ 14 1014.9R
LEWISETTA        1200   77 80  350/  7/  9 1014.9R
SOLOMONS ISLAND  1200      80                N/A
PINEY POINT      1200          360/ 11/ 12   N/A

$$




USA.gov is the U.S. government's official web portal to all federal, state and local government web resources and services.